San Antonio, TX

3:02 PM CDT on May 23, 2017 (GMT -0500)
San Antonio International

Weather History for KSAT - January, 2014

Change the Weather History Date:

Thursday, January 23, 2014

  Actual Average Record
Temperature  
Mean Temperature 43 °F 52 °F  
Max Temperature 56 °F 63 °F 88 °F (1972)
Min Temperature 30 °F 41 °F 17 °F (1966)
Degree Days  
Heating Degree Days 22 13  
Month to date heating degree days 290 316  
Since 1 July heating degree days 930 918  
Cooling Degree Days 0 0  
Month to date cooling degree days 1 0  
Year to date cooling degree days 1 0  
Moisture  
Dew Point 35 °F    
Average Humidity 73    
Maximum Humidity 85    
Minimum Humidity 60    
Precipitation  
Precipitation 0.08 in 0.06 in 1.91 in (1938)
Month to date precipitation 0.20 1.27  
Year to date precipitation 0.20 1.27  
Snow  
Snow 0.00 in - - ()
Month to date snowfall 0.0  
Since 1 July snowfall 0.0  
Snow Depth 0.00 in    
Sea Level Pressure  
Sea Level Pressure 30.32 in    
Wind  
Wind Speed 13 mph (NNE)    
Max Wind Speed 29 mph    
Max Gust Speed 43 mph    
Visibility 8 miles    
Events Rain    
T = Trace of Precipitation, MM = Missing Value Source: NWS Daily Summary

Daily Weather History Graph

Daily Weather History Graph

Search for Another Location

Airport or City:

Trip Planner

Search our weather history database for the weather conditions in past years. The results will help you decide how hot, cold, wet, or windy it might be!

Date:

Astronomy

Jan. 23, 2014 Rise Set
Actual Time 7:27 AM CST 6:04 PM CST
Civil Twilight 7:02 AM CST 6:29 PM CST
Nautical Twilight 6:33 AM CST 6:58 PM CST
Astronomical Twilight 6:04 AM CST 7:26 PM CST
Moon 12:04 AM CST 11:38 AM CST
Length of Visible Light 11h 27m
Length of Day
10h 36m
Waning Gibbous, 55% of the Moon is Illuminated
Jan 23
Waning Gibbous
Jan 23
Last Quarter
Jan 30
New
Feb 6
First Quarter
Feb 14
Full

Hourly Weather History & Observations

Time (CST) Temp. Windchill Dew Point Humidity Pressure Visibility Wind Dir Wind Speed Gust Speed Precip Events Conditions
12:51 AM 53.1 °F - 46.9 °F 80% 29.99 in 10.0 mi ESE 4.6 mph - N/A   Mostly Cloudy
1:51 AM 54.0 °F - 46.9 °F 77% 30.00 in 10.0 mi East 3.5 mph - N/A   Scattered Clouds
2:51 AM 51.1 °F - 46.9 °F 86% 30.00 in 10.0 mi Calm Calm - N/A   Mostly Cloudy
3:02 AM 53.6 °F - 48.2 °F 82% 30.04 in 10.0 mi Calm Calm - N/A   Overcast
3:51 AM 54.0 °F - 48.0 °F 80% 30.01 in 10.0 mi NNE 4.6 mph - N/A   Overcast
4:51 AM 54.0 °F - 48.0 °F 80% 30.03 in 10.0 mi Calm Calm - N/A   Overcast
5:51 AM 55.0 °F - 48.9 °F 80% 30.06 in 10.0 mi Calm Calm - N/A   Overcast
6:51 AM 54.0 °F - 48.9 °F 83% 30.10 in 10.0 mi ENE 3.5 mph - N/A   Mostly Cloudy
7:51 AM 54.0 °F - 48.0 °F 80% 30.12 in 10.0 mi NE 3.5 mph - N/A   Mostly Cloudy
8:51 AM 55.0 °F - 46.9 °F 74% 30.15 in 10.0 mi ENE 10.4 mph 16.1 mph N/A   Overcast
9:51 AM 54.0 °F - 45.0 °F 72% 30.20 in 10.0 mi NNE 15.0 mph 20.7 mph N/A   Overcast
10:51 AM 50.0 °F - 37.9 °F 63% 30.26 in 10.0 mi NNE 13.8 mph 31.1 mph 0.00 in   Overcast
11:51 AM 46.9 °F - 33.1 °F 59% 30.28 in 10.0 mi North 18.4 mph 32.2 mph 0.00 in   Overcast
12:51 PM 43.0 °F 34.8 °F 32.0 °F 65% 30.29 in 10.0 mi North 18.4 mph 28.8 mph 0.00 in   Overcast
1:51 PM 41.0 °F 31.1 °F 32.0 °F 70% 30.30 in 9.0 mi North 23.0 mph 36.8 mph 0.00 in   Overcast
2:51 PM 41.0 °F 31.4 °F 30.9 °F 67% 30.32 in 10.0 mi North 21.9 mph 33.4 mph N/A   Overcast
3:51 PM 39.0 °F 28.3 °F 30.0 °F 70% 30.35 in 10.0 mi NNE 24.2 mph 32.2 mph N/A   Overcast
4:51 PM 39.0 °F 28.3 °F 28.0 °F 65% 30.38 in 10.0 mi NNE 24.2 mph 42.6 mph N/A   Overcast
5:51 PM 37.0 °F 27.0 °F 28.9 °F 73% 30.41 in 10.0 mi North 18.4 mph 32.2 mph 0.00 in   Overcast
6:51 PM 35.1 °F 24.5 °F 27.0 °F 72% 30.46 in 9.0 mi North 18.4 mph 29.9 mph 0.00 in Rain Light Rain
7:51 PM 33.1 °F 22.2 °F 27.0 °F 78% 30.50 in 5.0 mi NNE 17.3 mph 33.4 mph 0.00 in Rain Light Rain
8:06 PM 32.0 °F 20.8 °F 26.6 °F 80% 30.52 in 5.0 mi NNE 17.3 mph 39.1 mph 0.00 in Rain Light Freezing Rain
8:34 PM 32.0 °F 22.1 °F 26.6 °F 80% 30.54 in 2.5 mi NNE 13.8 mph 28.8 mph 0.01 in Rain Light Freezing Rain
8:45 PM 32.0 °F 20.5 °F 28.4 °F 87% 30.55 in 2.0 mi North 18.4 mph 28.8 mph 0.01 in Rain Light Freezing Rain
8:51 PM 32.0 °F 21.2 °F 28.0 °F 85% 30.54 in 2.0 mi NNE 16.1 mph 26.5 mph 0.02 in Rain Light Freezing Rain
9:11 PM 32.0 °F 20.8 °F 28.4 °F 87% 30.56 in 2.0 mi North 17.3 mph 28.8 mph 0.02 in Rain Light Freezing Rain
9:51 PM 30.9 °F 19.8 °F 26.1 °F 82% 30.58 in 2.0 mi North 16.1 mph 28.8 mph 0.03 in Rain Light Freezing Rain
10:51 PM 30.0 °F 18.3 °F 26.1 °F 85% 30.61 in 2.5 mi NNE 17.3 mph 31.1 mph 0.01 in Rain Light Freezing Rain
11:07 PM 30.2 °F 20.2 °F 26.6 °F 86% 30.62 in 3.0 mi North 12.7 mph 25.3 mph 0.00 in   Light Freezing Drizzle
11:18 PM 30.2 °F 18.9 °F 24.8 °F 80% 30.62 in 3.0 mi North 16.1 mph 31.1 mph 0.01 in Rain Light Freezing Rain
11:45 PM 30.2 °F 18.1 °F 24.8 °F 80% 30.62 in 3.0 mi NNE 18.4 mph 27.6 mph 0.01 in   Ice Pellets
11:51 PM 30.0 °F 20.0 °F 25.0 °F 82% 30.61 in 3.0 mi NNE 12.7 mph 27.6 mph 0.01 in   Ice Pellets